Location: Buchloe
(48.0161°N, 10.7316°E)
Time: 03:23:25
(UTC+02:00)

ISS - Pass Details

Date: 10 July 2025
Orbit: 413 x 417 km, 51.6° (Epoch: 12 July)

Event Time Altitude Azimuth Distance (km) Brightness Sun altitude
Rises 22:45:47 0° 248° (WSW) 2,344 0.2 -11.6°
Reaches altitude 10° 22:47:53 10° 250° (WSW) 1,484 -0.8 -11.8°
Maximum altitude 22:51:12 83° 337° (NNW) 423 -3.7 -12.1°
Drops below altitude 10° 22:54:34 10° 67° (ENE) 1,492 -1.1 -12.4°
Sets 22:56:40 0° 68° (ENE) 2,357 -0.1 -12.6°
